Startseite
Über Mich
AHP4
Galerie
Sehschlangen
Tourenbuch
Bookmarks
Elektronik
Bewertung
Geschichten
[Tagesmessung] [Jahreswerte] [Information]

Messwerte vom 14.03.2022

Die letzten Messwerte von 23:58:47 Uhr:
KategorieMesswert
Temperatur [°C]3
Luftdruck [mBar]1013
Sonneneinstrahlung0
Wind [km/h]0 aus Südost
Niederschlag [l/m²]0
rel.Luftfeucht.96.6%
CO2 [ppm]1045

Diagramme
Messwerte vom 14.03.2022
Tagesaggregation
KategorieMinimumMaximumSchnittSumme
Temperatur [°C]-2134.4979
Luftdruck [mBar]100310131007.9917
Sonneneinstrahlung23189.5750
Wind [km/h]11
rF [%]40.996.671.52
Niederschlag [l/m²]2.8325
CO2 [ppm]4251191838.7
Einordnung alsFrosttag
Vegetationstag

Messungen an benachbarten Tagen: Zur Jahresaggregation 2022
Tabelle aller Messwerte
UhrzeitTemperatur [°C]Luftdruck [mBar]SonneWind [km/h]RichtungRegen [l/m²]rF [%]CO2 [ppm]
00:01:47 2 1003 0 0 O 0 40.9 765
00:04:44 2 1004 0 0 O 0 41.1 770
00:07:47 2 1004 0 0 O 0 41.3 757
00:10:46 2 1004 0 0 O 0 41.7 751
00:13:47 2 1004 0 0 O 0 41.9 759
00:16:45 2 1004 0 0 O 0 42 771
00:19:46 2 1004 0 0 O 0 42.4 776
00:22:46 1 1003 0 0 O 0 43.2 773
00:25:46 1 1004 0 0 NW 0 43.5 780
00:28:46 1 1004 0 0 NW 0 44.3 785
00:32:02 1 1004 0 0 N 0 44.8 794
00:34:48 1 1004 0 0 N 0 45.2 782
00:37:46 1 1004 0 0 N 0 45.7 782
00:40:46 1 1003 0 0 N 0 46.3 785
00:43:46 1 1004 0 0 N 0 46.5 782
00:46:47 0 1005 0 0 O 0 46.6 777
00:49:46 0 1003 0 0 O 0 47.2 782
00:52:47 1 1003 0 0 O 0 48.4 780
00:55:46 1 1004 0 0 NO 0 48.4 781
00:58:44 1 1004 0 0 O 0 47.7 782
01:01:49 1 1004 0 0 SO 0 47.3 785
01:04:44 1 1003 0 0 O 0 47.6 777
01:07:45 1 1003 0 0 N 0 48 779
01:10:45 1 1003 0 1 O 0 48 767
01:13:47 1 1003 0 0 NO 0 47.8 767
01:16:47 1 1003 0 0 NO 0 47.2 767
01:19:49 1 1003 0 0 N 0 47.2 769
01:22:48 1 1004 0 0 SO 0 47.8 770
01:25:48 1 1004 0 0 N 0 48.3 762
01:28:47 1 1004 0 0 N 0 48.4 759
01:31:46 1 1004 0 0 NO 0 48.5 761
01:34:48 1 1004 0 1 NW 0 48.4 761
01:37:46 1 1003 0 0 N 0 48.5 764
01:40:46 1 1004 0 2 O 0 48.5 752
01:43:48 1 1003 0 0 NO 0 48.3 751
01:46:45 1 1004 0 1 O 0 48 750
01:49:49 1 1003 0 1 NO 0 48 759
01:52:49 1 1004 0 0 NW 0 48.5 758
01:55:46 1 1004 0 1 SO 0 48.5 755
01:58:48 0 1005 0 2 SO 0 48.4 750
02:01:46 0 1004 0 0 S 0 48.6 744
02:04:46 0 1003 0 0 N 0 49 739
02:07:45 0 1004 0 0 O 0 49.4 741
02:10:46 0 1004 0 1 O 0 49.6 744
02:13:46 0 1003 0 2 NO 0 49.6 749
02:16:47 0 1005 0 0 NW 0 49.4 747
02:19:44 0 1004 0 1 O 0 49.4 743
02:22:47 0 1004 0 0 NO 0 49.7 747
02:25:47 0 1005 0 0 N 0 49.6 738
02:28:45 0 1004 0 0 N 0 49.7 738
02:31:46 0 1004 0 0 N 0 49.8 738
02:34:45 0 1005 0 0 N 0 49.7 740
02:37:45 0 1004 0 0 N 0 50.1 738
02:40:46 0 1005 0 0 O 0 50.5 734
02:43:46 0 1005 0 0 O 0 51.2 735
02:46:47 -1 1005 0 0 O 0 51.5 738
02:49:45 -1 1004 0 0 O 0 51.6 732
02:52:47 -1 1005 0 0 O 0 52.1 734
02:55:46 -1 1004 0 0 O 0 53.2 734
02:58:47 -1 1004 0 0 NO 0 53.6 730
03:01:46 -1 1004 0 0 N 0 53.6 726
03:04:46 -1 1004 0 0 N 0 53.9 723
03:07:47 -1 1005 0 0 N 0 53.7 724
03:10:46 -1 1004 0 0 N 0 54.3 721
03:13:45 -1 1004 0 0 N 0 54.4 717
03:16:44 -1 1004 0 0 N 0 54.4 725
03:19:45 -1 1004 0 0 N 0 54.5 723
03:22:45 -1 1004 0 0 N 0 54.5 732
03:25:45 -1 1004 0 0 N 0 55.2 723
03:28:46 -1 1004 0 0 O 0 56.7 719
03:31:47 0 1004 0 0 O 0 56.7 726
03:34:48 0 1004 0 0 O 0 56.5 729
03:37:45 0 1004 0 1 O 0 55.9 735
03:40:46 0 1004 0 0 O 0 55.7 722
03:43:46 0 1005 0 0 N 0 55.4 718
03:46:47 -1 1004 0 0 NO 0 55.5 723
03:49:47 -1 1004 0 0 NO 0 55.9 736
03:52:46 -1 1004 0 0 N 0 56.1 739
03:55:46 -1 1004 0 0 N 0 56.3 733
03:58:47 -1 1004 0 0 N 0 56.4 726
04:01:46 -2 1004 0 0 NO 0 56.6 723
04:04:46 -2 1005 0 0 O 0 56.9 726
04:07:47 -2 1004 0 0 NW 0 57.8 729
04:10:46 -1 1004 0 2 O 0 58.1 729
04:13:45 -1 1004 0 0 O 0 59 726
04:16:45 -1 1005 0 1 NO 0 58.7 720
04:19:45 -1 1004 0 0 W 0 58.6 719
04:22:46 0 1004 0 2 NO 0 57.6 723
04:25:45 0 1005 0 0 O 0 56.9 724
04:28:48 0 1004 0 1 NW 0 56.8 739
04:31:45 0 1004 0 1 O 0 56.3 731
04:34:46 0 1004 0 0 O 0 56.7 730
04:37:45 0 1005 0 1 O 0 56.5 717
04:40:47 0 1005 0 1 NO 0 56.8 718
04:43:47 0 1004 0 0 SO 0 56.8 713
04:46:46 0 1004 0 0 O 0 56.4 717
04:49:46 -1 1004 0 0 NO 0 56.2 711
04:52:47 -1 1005 0 0 NO 0 55.9 715
04:55:47 -1 1005 0 0 NO 0 56 716
04:58:47 -1 1005 0 0 NO 0 56.2 720
05:01:47 -2 1005 0 0 NO 0 56.5 706
05:04:48 -2 1005 0 0 NO 0 56.5 710
05:07:49 -2 1005 0 1 NW 0 57.8 717
05:10:46 -2 1005 0 0 N 0 58.3 723
05:13:47 -2 1005 0 0 N 0 58.4 723
05:16:49 -2 1005 0 0 N 0 58.2 720
05:19:45 -2 1005 0 0 N 0 58 723
05:22:45 -2 1005 0 0 N 0 57.6 718
05:25:45 -2 1005 0 0 N 0 58.4 711
05:28:45 -2 1005 0 0 N 0 59.1 711
05:31:46 -2 1005 0 0 N 0 59.4 702
05:34:47 -2 1005 0 0 N 0 59.4 701
05:37:48 -2 1005 0 0 N 0 60.3 702
05:40:47 -2 1005 0 0 S 0 60.5 710
05:43:47 -2 1005 0 0 S 0 60.7 709
05:46:47 -2 1005 0 0 S 0 61 707
05:49:46 -2 1005 0 0 O 0 60.6 713
05:52:45 -2 1005 0 0 NO 0 62.3 715
05:55:45 -2 1006 0 0 O 0 62.8 709
05:58:45 -2 1005 0 0 O 0 62.3 709
06:01:47 -2 1005 0 0 O 0 61.1 706
06:04:46 -2 1005 0 0 O 0 61.1 703
06:07:48 -2 1005 0 1 SO 0 61.3 706
06:10:47 -2 1005 4 0 O 0 62.3 706
06:13:48 -2 1005 7 0 NO 0 62.3 705
06:16:44 -1 1005 11 1 O 0 61.9 717
06:19:46 -1 1005 18 0 O 0 62.4 709
06:22:46 -1 1006 27 0 O 0 61.4 720
06:25:46 -1 1005 38 1 O 0 61.1 714
06:28:47 -1 1006 50 0 SO 0 60.7 708
06:31:47 -1 1005 63 0 SO 0 60.7 706
06:34:48 -2 1005 77 0 SO 0 60.6 712
06:37:49 -2 1005 89 0 SO 0 60.6 709
06:40:52 -2 1006 101 0 SO 0 60.6 711
06:43:49 -2 1005 112 0 NO 0 60.7 709
06:46:48 -2 1005 121 0 NO 0 61.1 714
06:49:48 -2 1006 130 0 N 0 61.3 714
06:52:48 -2 1006 137 0 N 0 61.9 715
06:55:45 -2 1005 144 0 N 0 61.7 708
06:58:51 -2 1005 148 0 O 0 62.2 693
07:01:46 -2 1006 153 0 SO 0 62.3 679
07:04:46 -2 1006 157 0 SO 0 61.9 676
07:07:49 -2 1005 161 0 SO 0 61.7 678
07:10:49 -2 1006 165 0 SO 0 61.6 679
07:13:49 -2 1006 169 0 SO 0 61.8 675
07:16:48 -2 1006 172 0 SO 0 62.2 677
07:19:50 -2 1006 175 0 SO 0 62 687
07:22:49 -2 1006 176 0 SO 0 62.1 685
07:25:48 -2 1006 178 0 SO 0 62.1 677
07:28:47 -2 1006 179 0 SO 0 62.1 677
07:31:49 -2 1006 180 0 SO 0 62.1 682
07:34:48 -2 1006 181 0 N 0 62.8 685
07:37:48 -2 1006 182 0 N 0 62.7 682
07:40:47 -1 1006 183 0 N 0 62.4 680
07:43:47 -1 1006 184 0 N 0 62.4 679
07:46:48 -1 1006 185 0 N 0 62.1 695
07:49:49 -1 1006 186 0 SO 0 61.6 694
07:52:48 -1 1006 187 0 SO 0 60.9 691
07:55:48 -1 1006 188 0 SO 0 60.7 697
07:58:50 -1 1006 190 0 SO 0 60.6 695
08:01:50 -1 1006 192 0 S 0 60.5 692
08:04:47 0 1006 194 0 S 0 60.2 701
08:07:47 0 1006 194 0 S 0 59.7 717
08:10:50 0 1006 196 0 S 0 58.8 719
08:13:48 0 1006 197 0 NW 0 58.5 706
08:16:50 1 1006 198 0 NW 0 58.2 700
08:19:50 1 1006 200 0 NW 0 57.6 702
08:22:48 1 1006 202 0 O 0 57.1 697
08:25:46 1 1006 204 0 O 0 56.8 706
08:28:47 2 1006 207 0 O 0 56.6 697
08:31:49 2 1006 209 0 NW 0 56.4 685
08:34:47 2 1006 210 1 NW 0 56.2 680
08:37:48 2 1006 210 0 NO 0 55.7 679
08:40:49 3 1006 210 0 SO 0 55 683
08:43:49 3 1006 211 0 SO 0 54.9 674
08:46:48 3 1006 212 3 SO 0 54.9 674
08:49:48 3 1006 212 6 SO 0 54.5 676
08:52:47 3 1006 211 2 S 0 52.7 536
08:55:48 4 1006 210 3 S 0 52.6 425
08:58:48 4 1006 208 1 NW 0 52.5 522
09:01:46 4 1006 207 0 S 0 51.8 548
09:04:49 4 1006 208 0 S 0 51.2 548
09:07:47 4 1006 209 0 S 0 51.4 553
09:10:46 4 1006 209 1 W 0 51.8 550
09:13:49 4 1006 208 0 NW 0 51.8 557
09:16:49 4 1006 208 0 SO 0 51.2 592
09:19:48 4 1006 209 1 W 0 51 598
09:22:48 5 1006 209 0 S 0 50.8 606
09:25:47 5 1006 211 2 W 0 50.6 606
09:28:49 5 1006 212 1 SW 0 48.8 607
09:31:48 5 1006 213 1 NW 0 47.8 612
09:34:48 6 1006 213 3 SW 0 47.9 621
09:37:48 6 1006 214 4 N 0 48.5 621
09:40:46 6 1006 214 0 S 0 49.1 623
09:43:47 6 1006 214 0 W 0 48.4 627
09:46:46 7 1007 214 5 S 0 47.5 632
09:49:49 7 1006 214 6 W 0 46.4 627
09:52:47 7 1006 215 4 SW 0 45.8 630
09:55:49 7 1006 215 3 SW 0 45.5 633
09:58:49 7 1006 216 1 SW 0 44.8 639
10:01:49 7 1007 216 2 SO 0 44.8 641
10:04:49 8 1006 219 5 NW 0 45.1 645
10:07:47 8 1006 219 8 W 0 44.7 647
10:10:48 8 1007 220 5 SW 0 45.8 647
10:13:49 8 1006 221 4 SW 0 45.1 638
10:16:50 8 1006 221 0 SW 0 44.4 629
10:19:48 8 1006 222 3 SW 0 44.3 552
10:22:48 9 1006 222 1 NW 0 43.9 521
10:25:49 9 1007 223 5 SW 0 43.7 559
10:28:46 9 1006 224 0 S 0 43.5 614
10:31:49 9 1006 224 0 NW 0 44 624
10:34:51 10 1006 223 3 S 0 43.5 626
10:37:50 10 1006 220 1 W 0 42.8 624
10:40:51 10 1007 220 2 W 0 43.1 616
10:43:46 10 1006 218 1 W 0 43.3 621
10:46:47 10 1006 208 3 SW 0 43.4 626
10:49:49 10 1007 203 3 SW 0 42.9 627
10:52:48 10 1007 209 1 SW 0 43 633
10:55:46 9 1007 213 1 W 0 43.7 636
10:58:49 9 1007 214 0 SW 0 44.7 632
11:01:45 9 1007 213 5 SW 0 45.1 641
11:04:48 10 1007 217 5 W 0 45.6 650
11:07:47 10 1007 218 0 S 0 45.7 656
11:10:46 10 1007 218 5 S 0 45.9 661
11:13:47 10 1007 218 9 W 0 46.5 660
11:16:49 10 1007 219 4 SW 0 46.6 661
11:19:48 10 1007 220 3 SW 0 46.2 665
11:22:49 10 1007 221 6 W 0 47.2 662
11:25:48 10 1007 222 4 W 0 47.3 673
11:28:47 10 1007 221 0 NO 0 47.4 673
11:31:46 11 1008 219 3 N 0 47.1 677
11:34:47 11 1007 218 5 W 0 47.1 677
11:37:49 11 1009 221 2 S 0 47.4 767
11:40:50 10 1008 224 8 SW 0 48.7 776
11:43:49 11 1008 224 5 NW 0 49.5 779
11:46:49 11 1009 227 4 W 0 50.5 770
11:49:48 11 1009 229 4 W 0 50.5 768
11:52:50 11 1009 229 5 W 0 50.4 773
11:55:48 11 1009 228 1 SW 0 50.4 774
11:58:46 11 1009 228 5 S 0 50.5 773
12:01:49 12 1008 229 11 W 0 51.1 773
12:04:51 12 1008 230 5 S 0 51.2 776
12:07:50 12 1009 231 9 SW 0 51.1 785
12:10:49 12 1009 230 5 SW 0 51.1 785
12:13:48 13 1009 229 3 SW 0 51.6 785
12:16:48 13 1008 226 2 W 0 51.6 788
12:19:50 13 1009 224 9 W 0 51.8 788
12:22:49 13 1009 222 6 W 0 51.8 791
12:25:50 13 1009 214 1 SO 0 52.7 803
12:28:47 12 1009 211 4 SW 0 52.7 805
12:31:49 12 1009 210 6 SW 0 53.5 803
12:34:46 12 1009 208 3 W 0 54.2 806
12:37:50 11 1009 210 2 NW 0 54.8 813
12:40:48 11 1009 215 4 W 0 55.5 808
12:43:48 11 1009 219 4 W 0 55.8 813
12:46:47 11 1009 219 0 W 0 55.9 819
12:49:49 11 1009 217 2 SW 0 56.1 817
12:52:50 11 1008 218 6 SO 0 56.4 826
12:55:48 11 1010 214 3 SO 0 57.8 823
12:58:48 11 1009 211 3 S 0 58.4 830
13:01:48 11 1009 214 6 NW 0 59.1 829
13:04:48 11 1009 216 0 O 0 60.1 826
13:07:49 11 1009 213 0 NW 0 60.5 831
13:10:51 11 1009 211 4 SO 0 60.8 832
13:13:51 11 1009 212 5 SW 0 61.1 829
13:16:49 11 1009 211 3 NW 0 61.6 822
13:19:51 11 1009 209 3 O 0 62.4 824
13:22:47 11 1009 206 1 W 0 62.8 827
13:25:49 10 1009 201 1 SO 0 63.7 828
13:28:50 10 1009 193 2 S 0 66.9 824
13:31:49 10 1009 185 0 SW 0 67.2 822
13:34:48 10 1009 183 5 S 0 67.9 817
13:37:47 10 1010 185 0 S 0 69.4 808
13:40:48 10 1010 186 2 SW 0 70.6 805
13:43:48 9 1009 185 4 S 0 72.5 803
13:46:46 9 1009 183 0 N 0 74.5 800
13:49:48 9 1009 178 4 SO 0 76.3 797
13:52:47 9 1009 171 2 SW 0 77.8 791
13:55:47 9 1009 110 2 SO 0 79.1 797
13:58:48 9 1009 170 4 SW 0 80.3 700
14:01:46 8 1010 171 3 W 0 81.2 694
14:04:47 8 1010 171 2 SW 0 83 746
14:07:48 8 1009 166 3 SO 0 84.5 761
14:10:49 8 1010 163 1 NW 0 85.9 756
14:13:47 8 1010 167 1 0 87.1 764
14:16:46 8 1010 175 2 O 0 87.8 765
14:19:47 8 1010 178 2 S 0.2575 88.5 765
14:22:49 8 1010 171 2 SW 0 89.4 780
14:25:46 8 1010 169 1 S 0 90.1 788
14:28:47 8 1009 171 1 S 0 90.8 785
14:31:45 8 1010 175 1 0 91.6 782
14:34:48 8 1010 171 1 SO 0 92.4 785
14:37:48 7 1009 174 2 SO 0 92.8 791
14:40:48 7 1009 177 2 S 0.2575 93.3 788
14:43:49 7 1009 178 3 SO 0 93.8 788
14:46:47 7 1010 175 1 SW 0 94.8 791
14:49:47 7 1010 171 1 S 0 95.3 788
14:52:47 7 1010 168 3 SO 0 95.7 795
14:55:48 7 1010 175 0 S 0.2575 95.9 803
14:58:47 7 1010 181 2 O 0 96.1 814
15:01:48 7 1010 180 2 SW 0 96.6 817
15:04:48 7 1010 188 2 S 0 96.6 811
15:07:48 7 1010 190 4 SW 0 96.6 811
15:10:47 7 1010 190 2 S 0.2575 96.6 811
15:13:47 7 1010 190 2 SW 0 96.6 817
15:16:48 7 1009 193 1 S 0 96.6 819
15:19:48 7 1010 194 4 SW 0 96.6 822
15:22:46 7 1010 188 4 S 0 96.6 826
15:25:48 7 1010 191 3 SW 0.2575 96.6 828
15:28:49 7 1010 192 1 SW 0 96.6 828
15:31:48 7 1010 194 1 SW 0 96.6 828
15:34:48 7 1010 190 0 S 0 96.6 838
15:37:47 7 1009 188 4 SW 0 96.6 840
15:40:47 7 1009 192 1 SW 0 96.6 841
15:43:48 7 1010 193 0 S 0 96.6 844
15:46:46 7 1010 181 2 S 0 96.6 844
15:49:45 7 1010 176 6 S 0.2575 96.6 846
15:52:45 7 1010 177 2 W 0 96.6 843
15:55:49 7 1010 183 3 SW 0 96.6 843
15:58:48 7 1010 189 3 SW 0 96.6 847
16:01:46 7 1010 193 4 S 0 96.6 850
16:04:50 7 1010 196 3 SW 0 96.6 858
16:07:48 7 1010 189 4 SW 0 96.6 864
16:10:48 7 1010 187 3 S 0.2575 96.6 867
16:13:47 7 1010 177 2 O 0 96.6 868
16:16:47 7 1010 176 4 SW 0 96.6 868
16:19:48 7 1009 173 4 S 0 96.6 867
16:22:48 7 1010 165 3 SW 0 96.6 862
16:25:49 7 1010 164 3 SW 0 96.6 865
16:28:46 7 1010 160 2 S 0 96.6 861
16:31:48 7 1010 158 3 S 0 96.6 870
16:34:49 7 1010 157 1 SO 0 96.6 873
16:37:50 7 1010 155 3 SO 0.2575 96.6 881
16:40:46 7 1010 153 2 S 0 96.6 874
16:43:46 7 1010 152 1 SW 0 96.6 873
16:46:46 7 1010 147 1 SW 0 96.6 878
16:49:50 7 1010 143 3 S 0 96.6 880
16:52:49 7 1010 134 2 W 0 96.6 882
16:55:48 7 1010 136 2 SO 0 96.6 882
16:58:49 7 1010 125 1 SW 0 96.6 879
17:01:48 7 1010 123 3 S 0 96.6 884
17:04:48 7 1010 121 1 W 0 96.6 885
17:07:49 7 1010 122 0 SO 0 96.6 891
17:10:48 7 1010 119 6 SW 0.2575 96.6 902
17:13:47 7 1010 109 8 S 0 96.6 904
17:16:46 7 1010 94 1 SW 0 96.6 898
17:19:49 7 1010 79 2 SW 0 96.6 904
17:22:48 7 1010 91 2 SW 0 96.6 905
17:25:47 7 1010 80 0 SW 0 96.6 927
17:28:48 7 1010 97 2 SW 0 96.6 942
17:31:46 7 1010 108 2 O 0 96.6 941
17:34:46 7 1010 97 0 S 0 96.6 946
17:37:48 7 1010 77 2 S 0 96.6 967
17:40:47 7 1010 71 0 SW 0 96.6 984
17:43:47 7 1010 83 3 SO 0 96.6 992
17:46:49 7 1010 62 2 SW 0.2575 96.6 1016
17:49:47 7 1010 61 2 SW 0 96.6 999
17:52:49 7 1010 68 3 SO 0 96.6 1001
17:55:46 7 1010 74 0 SW 0 96.6 986
17:58:47 7 1010 74 0 NO 0 96.6 1014
18:01:47 7 1010 71 2 SW 0 96.6 1020
18:04:49 7 1010 81 3 SO 0.2575 96.6 1038
18:07:47 7 1010 94 1 W 0 96.6 1039
18:10:49 7 1010 84 1 S 0 96.6 1026
18:13:48 7 1011 65 2 SW 0 96.6 1026
18:16:45 7 1010 52 2 S 0 96.6 1033
18:19:46 7 1010 51 2 S 0 96.6 1039
18:22:46 7 1011 35 1 S 0 96.6 1041
18:25:48 7 1011 25 1 SW 0 96.6 1049
18:28:48 7 1010 21 3 SW 0 96.6 1048
18:31:47 7 1010 14 0 S 0 96.6 1048
18:34:48 7 1010 8 1 SW 0 96.6 1056
18:37:47 7 1010 6 1 SO 0 96.6 1070
18:40:47 7 1010 4 0 S 0 96.6 1080
18:43:46 7 1011 0 2 S 0 96.6 1078
18:46:49 7 1010 0 2 NW 0 96.6 1096
18:49:50 7 1011 0 0 SO 0 96.6 1106
18:52:47 7 1010 0 0 S 0 96.6 1106
18:55:47 7 1010 0 2 S 0 96.6 1101
18:58:46 7 1010 0 0 S 0 96.6 1099
19:01:48 7 1011 0 2 S 0 96.6 1092
19:04:46 7 1010 0 0 S 0 96.6 1082
19:07:48 7 1010 0 0 S 0 96.6 1087
19:10:48 7 1010 0 1 SO 0 96.6 1090
19:13:47 7 1011 0 3 S 0 96.6 1092
19:16:46 7 1012 0 1 W 0 96.6 1097
19:19:46 7 1012 0 1 S 0 96.6 1093
19:22:48 7 1010 0 1 W 0 96.6 1083
19:25:47 7 1011 0 1 S 0 96.6 1087
19:28:48 7 1011 0 2 W 0 96.6 1093
19:31:46 7 1011 0 1 S 0 96.6 1094
19:34:48 7 1012 0 3 S 0 96.6 1086
19:37:46 7 1011 0 1 S 0 96.6 1083
19:40:48 7 1011 0 2 O 0 96.6 1094
19:43:44 7 1011 0 1 N 0 96.6 1104
19:46:47 7 1011 0 3 S 0 96.6 1107
19:49:47 7 1010 0 1 0 96.6 1100
19:52:49 7 1011 0 3 SW 0 96.6 1086
19:55:49 7 1012 0 0 SO 0 96.6 1090
19:58:48 7 1012 0 2 S 0 96.6 1089
20:01:49 7 1012 0 0 SW 0 96.6 1086
20:04:45 7 1012 0 4 S 0 96.6 1107
20:07:45 7 1011 0 2 S 0 96.6 1104
20:10:47 7 1012 0 3 S 0 96.6 1105
20:13:48 7 1012 0 2 NW 0 96.6 1093
20:16:47 7 1011 0 3 S 0 96.6 1110
20:19:46 7 1012 0 3 S 0 96.6 1131
20:22:47 7 1012 0 1 SW 0 96.6 1132
20:25:48 7 1012 0 2 SW 0 96.6 1132
20:28:48 7 1012 0 1 SO 0 96.6 1131
20:31:47 7 1012 0 3 SO 0 96.6 1141
20:34:45 7 1012 0 4 S 0 96.6 1139
20:37:48 7 1012 0 3 SW 0 96.6 1148
20:40:47 7 1012 0 3 S 0 96.6 1142
20:43:46 7 1013 0 0 S 0 96.6 1147
20:46:45 7 1012 0 1 SO 0 96.6 1139
20:49:46 7 1013 0 1 W 0 96.6 1137
20:52:47 7 1012 0 4 S 0 96.6 1129
20:55:47 7 1013 0 2 NW 0 96.6 1159
20:58:47 7 1012 0 2 O 0 96.6 1168
21:01:48 7 1012 0 2 S 0 96.6 1177
21:04:47 7 1013 0 2 SW 0 96.6 1174
21:07:49 7 1013 0 3 NW 0 96.6 1184
21:10:47 7 1013 0 5 W 0 96.6 1175
21:13:47 7 1013 0 4 NW 0 96.6 1183
21:16:48 7 1013 0 5 N 0 96.6 1182
21:19:51 7 1013 0 1 NW 0 96.6 1191
21:22:46 7 1013 0 0 SW 0 96.6 1182
21:25:47 7 1012 0 0 SW 0 96.6 1172
21:28:46 7 1013 0 0 SW 0 96.6 1171
21:31:48 7 1012 0 0 SW 0 96.6 1159
21:34:47 7 1012 0 0 SW 0 96.6 1162
21:37:46 7 1013 0 0 SW 0 96.6 1161
21:40:49 6 1013 0 0 SW 0 96.6 1162
21:43:46 6 1013 0 0 SW 0 96.6 1173
21:46:48 6 1013 0 0 SW 0 96.6 1165
21:49:47 6 1013 0 0 SW 0 96.6 1173
21:52:46 6 1013 0 0 S 0 96.6 1174
21:55:47 6 1013 0 0 S 0 96.6 1173
21:58:46 6 1012 0 0 S 0 96.6 1165
22:01:47 6 1013 0 0 S 0 96.6 1165
22:04:48 6 1013 0 0 S 0 96.6 1159
22:07:46 6 1013 0 0 O 0 96.6 1157
22:10:47 6 1013 0 0 S 0 96.6 1151
22:13:48 5 1013 0 0 SW 0 96.6 1155
22:16:48 5 1012 0 0 SW 0 96.6 1157
22:19:51 5 1013 0 0 SW 0 96.6 1173
22:22:47 5 1013 0 0 SW 0 96.6 1165
22:25:49 5 1013 0 0 SW 0 96.6 1181
22:28:49 5 1012 0 0 SW 0 96.6 1165
22:31:47 5 1012 0 0 SW 0 96.6 1151
22:34:49 5 1013 0 0 SW 0 96.6 1133
22:37:47 5 1013 0 0 SW 0 96.6 1121
22:40:47 4 1013 0 0 SW 0 96.6 1125
22:43:47 4 1013 0 0 SW 0 96.6 1134
22:46:48 4 1013 0 0 SW 0 96.6 1132
22:49:47 4 1013 0 0 SW 0 96.6 1131
22:52:49 4 1012 0 0 SW 0 96.6 1121
22:55:49 4 1012 0 0 SW 0 96.6 1120
22:58:46 4 1013 0 0 SW 0 96.6 1113
23:01:47 4 1013 0 0 SW 0 96.6 1108
23:04:47 4 1013 0 0 SW 0 96.6 1121
23:07:48 4 1013 0 0 SW 0 96.6 1093
23:10:47 4 1013 0 0 SW 0 96.6 1096
23:13:47 4 1013 0 0 SW 0 96.6 1091
23:16:47 4 1013 0 0 SW 0 96.6 1102
23:19:48 4 1013 0 0 SW 0 96.6 1089
23:22:47 3 1013 0 0 SW 0 96.6 1068
23:25:46 3 1013 0 0 SW 0 96.6 1072
23:28:49 3 1013 0 0 SO 0 96.6 1067
23:31:50 3 1012 0 0 SO 0 96.6 1080
23:34:48 3 1012 0 0 SO 0 96.6 1080
23:37:48 3 1013 0 0 SO 0 96.6 1072
23:40:47 3 1013 0 0 SO 0 96.6 1066
23:43:48 3 1013 0 0 SO 0 96.6 1062
23:46:50 3 1013 0 0 SO 0 96.6 1056
23:49:47 3 1013 0 0 SO 0 96.6 1049
23:52:48 3 1013 0 0 SO 0 96.6 1036
23:55:47 3 1013 0 0 SO 0 96.6 1039
23:58:47 3 1013 0 0 SO 0 96.6 1045

Letzte Änderung : 04-Jan-2022
Copyright Jens Köhler, Wolfsburg, Obere Dorfstraße 10d